User: anonymous   Login
Location: Newark
(5.8900°S, 42.6378°W)
Time: 05:05:17
(UTC+00:00)
Language:

Altair - Orbit

View from above orbital plane
View from above orbital plane
View from above satellite
View from above satellite

Ground track
Ground track

The orbit data is extracted from the following two-line orbital elements,

1    50U 60009B   19260.25500727 -.00000104 +00000-0 -18825-3 0  9990
2    50 047.2303 252.2875 0114123 228.8572 130.2323 12.20109641636749
Epoch (UTC): 17 September 2019 06:07:12
Eccentricity: 0.0114123
inclination: 47.2303°
perigee height: 1501 km
apogee height: 1683 km
right ascension of ascending node: 252.2875°
argument of perigee: 228.8572°
revolutions per day: 12.20109641
mean anomaly at epoch: 130.2323°
orbit number at epoch: 63674

The dashed part of the orbit path shows where the satellite is in the earth's shadow,  

DLR